Weather History for KINT - November, 2013

Change the Weather History Date:

Thursday, November 7, 2013

  Actual Average Record
Temperature  
Mean Temperature 54 °F -  
Max Temperature 64 °F 60 °F 78 °F (1975)
Min Temperature 45 °F 41 °F 20 °F (1991)
Degree Days  
Heating Degree Days 10    
Growing Degree Days 4 (Base 50)    
Moisture  
Dew Point 42 °F    
Average Humidity 67    
Maximum Humidity 93    
Minimum Humidity 38    
Precipitation  
Precipitation 0.00 in - - ()
Sea Level Pressure  
Sea Level Pressure 30.05 in    
Wind  
Wind Speed 3 mph (NW)    
Max Wind Speed 17 mph    
Max Gust Speed 28 mph    
Visibility 10 miles    
Events      
Averages and records for this station are not official NWS values.
T = Trace of Precipitation, MM = Missing Value Source: NWS Daily Summary

Daily Weather History Graph

Daily Weather History Graph

Search for Another Location

Airport or City:

Trip Planner

Search our weather history database for the weather conditions in past years. The results will help you decide how hot, cold, wet, or windy it might be!

Date:

Astronomy

Nov. 07, 2013 Rise Set
Actual Time 6:49 AM EST 5:18 PM EST
Civil Twilight 6:22 AM EST 5:45 PM EST
Nautical Twilight 5:52 AM EST 6:16 PM EST
Astronomical Twilight 5:22 AM EST 6:46 PM EST
Moon 10:55 AM EST (11/7) 9:29 PM EST (11/7)
Length of Visible Light 11h 22m
Length of Day
10h 29m
Waxing Crescent, 22% of the Moon is Illuminated
Nov 7
Waxing Crescent
Nov 10
First Quarter
Nov 17
Full
Nov 25
Last Quarter
Dec 2
New

Hourly Weather History & Observations

Time (EST) Temp. Windchill Dew Point Humidity Pressure Visibility Wind Dir Wind Speed Gust Speed Precip Events Conditions
12:54 AM 51.1 °F - 48.0 °F 89% 30.11 in 10.0 mi Calm Calm - N/A   Clear
1:54 AM 50.0 °F - 46.9 °F 89% 30.09 in 10.0 mi Calm Calm - N/A   Clear
2:54 AM 51.1 °F - 48.0 °F 89% 30.07 in 10.0 mi Calm Calm - N/A   Overcast
3:54 AM 50.0 °F - 48.0 °F 93% 30.04 in 10.0 mi Calm Calm - N/A   Partly Cloudy
4:54 AM 50.0 °F - 46.0 °F 86% 30.01 in 10.0 mi Calm Calm - N/A   Clear
5:54 AM 48.9 °F - 46.0 °F 90% 30.01 in 10.0 mi Calm Calm - N/A   Clear
6:54 AM 50.0 °F - 46.9 °F 89% 30.02 in 9.0 mi Calm Calm - N/A   Clear
7:54 AM 54.0 °F - 48.9 °F 83% 30.02 in 10.0 mi Calm Calm - N/A   Overcast
8:54 AM 55.9 °F - 50.0 °F 80% 30.03 in 10.0 mi Calm Calm - N/A   Overcast
9:54 AM 57.9 °F - 51.1 °F 78% 30.00 in 10.0 mi Calm Calm - N/A   Overcast
10:54 AM 60.1 °F - 52.0 °F 75% 29.99 in 10.0 mi Variable 4.6 mph - N/A   Overcast
11:54 AM 62.1 °F - 52.0 °F 70% 29.98 in 10.0 mi West 5.8 mph - N/A   Overcast
12:54 PM 61.0 °F - 52.0 °F 72% 29.99 in 10.0 mi NNW 9.2 mph - N/A   Overcast
1:54 PM 63.0 °F - 50.0 °F 63% 29.98 in 10.0 mi NW 10.4 mph - N/A   Overcast
2:54 PM 64.9 °F - 42.1 °F 43% 29.99 in 10.0 mi NW 17.3 mph 27.6 mph N/A   Partly Cloudy
3:54 PM 60.1 °F - 34.0 °F 38% 30.00 in 10.0 mi NNW 13.8 mph 23.0 mph N/A   Clear
4:54 PM 57.9 °F - 34.0 °F 41% 30.03 in 10.0 mi NW 13.8 mph 20.7 mph N/A   Clear
5:54 PM 54.0 °F - 30.9 °F 41% 30.06 in 10.0 mi NW 13.8 mph 23.0 mph N/A   Clear
6:54 PM 51.1 °F - 30.9 °F 46% 30.11 in 10.0 mi NNW 8.1 mph - N/A   Clear
7:54 PM 48.9 °F - 30.0 °F 48% 30.13 in 10.0 mi NNW 5.8 mph - N/A   Clear
8:54 PM 46.9 °F - 30.0 °F 52% 30.13 in 10.0 mi NNW 8.1 mph - N/A   Clear
9:54 PM 46.9 °F - 28.9 °F 50% 30.14 in 10.0 mi Variable 3.5 mph - N/A   Clear
10:54 PM 45.0 °F 42.6 °F 28.9 °F 53% 30.15 in 10.0 mi NW 4.6 mph - N/A   Clear
11:54 PM 45.0 °F 41.8 °F 28.9 °F 53% 30.15 in 10.0 mi NNW 5.8 mph - N/A   Clear